M I D A S
Marine Information and Data Acquisition System
Tripno 2307 of the Zeeleeuw from 2012-05-04 07:47:58 to 2012-05-04 12:19:55
Back to CruiseResearch ActivitiesStationsMapUnderway DataData graphs

EquipmentUnitsComments
TimeDGPSUTC
LatitudeDGPSDM.mWGS84
LongitudeDGPSDM.mWGS84
SpeedMeteo Stationm/sRelative wind speed
DirectionMeteo StationdegRelative wind direction
TemperatureMeteo Stationdeg CelciusAir temperature
PressureMeteo StationPaAtmospheric pressure
HumidityMeteo Station%Relative humidity
Missing or incorrect values are displayed as -999
Metereological data collected by the RV Zeeleeuw from 2012-05-04 07:44:51 to 2012-05-04 12:28:01
                                                                                    Next 1000 lines
Time Latitude Longitude Speed Direction Temperature Pressure Humidity
2012-05-04 07:45:01 51°13.633 2°56.013 2.2 38 9.7 100530 48
2012-05-04 07:45:06 51°13.634 2°56.01 2.4 25 9.7 100520 49
2012-05-04 07:45:11 51°13.634 2°56.005 3.7 32 9.7 100520 49
2012-05-04 07:45:16 51°13.635 2°55.999 3.6 21 9.6 100520 48
2012-05-04 07:45:21 51°13.636 2°55.993 3.6 33 9.6 100520 48
2012-05-04 07:45:26 51°13.638 2°55.986 4.1 21 9.6 100520 49
2012-05-04 07:45:31 51°13.639 2°55.98 3.6 39 9.6 100520 49
2012-05-04 07:45:36 51°13.64 2°55.973 4 20 9.7 100520 49
2012-05-04 07:45:41 51°13.641 2°55.965 4 39 9.7 100520 49
2012-05-04 07:45:46 51°13.642 2°55.958 4.8 24 9.6 100530 49
2012-05-04 07:45:51 51°13.644 2°55.95 4.4 32 9.6 100530 49
2012-05-04 07:45:56 51°13.645 2°55.941 4.6 21 9.6 100520 49
2012-05-04 07:46:01 51°13.647 2°55.933 5.1 32 9.6 100520 49
2012-05-04 07:46:07 51°13.649 2°55.923 4.2 21 9.6 100520 48
2012-05-04 07:46:11 51°13.65 2°55.916 4.2 37 9.6 100520 48
2012-05-04 07:46:16 51°13.653 2°55.906 4.6 27 9.6 100520 49
2012-05-04 07:46:21 51°13.655 2°55.897 3.6 35 9.6 100520 49
2012-05-04 07:46:26 51°13.658 2°55.888 3.7 18 9.5 100530 48
2012-05-04 07:46:31 51°13.661 2°55.879 4.3 38 9.5 100530 48
2012-05-04 07:46:36 51°13.664 2°55.87 4.2 28 9.5 100520 48
2012-05-04 07:46:41 51°13.667 2°55.861 2 33 9.5 100520 48
2012-05-04 07:46:46 51°13.671 2°55.852 2.4 26 9.5 100530 47
2012-05-04 07:46:51 51°13.674 2°55.843 2.4 38 9.5 100530 47
2012-05-04 07:46:56 51°13.677 2°55.835 2.1 20 9.5 100520 47
2012-05-04 07:47:01 51°13.681 2°55.826 3.6 37 9.5 100520 47
2012-05-04 07:47:06 51°13.684 2°55.818 3.9 22 9.6 100520 49
2012-05-04 07:47:11 51°13.688 2°55.81 4.1 38 9.6 100520 49
2012-05-04 07:47:16 51°13.691 2°55.801 3.9 25 9.8 100520 49
2012-05-04 07:47:21 51°13.694 2°55.793 3.3 37 9.8 100520 49
2012-05-04 07:47:26 51°13.697 2°55.785 3.5 19 9.9 100530 50
2012-05-04 07:47:31 51°13.7 2°55.777 3.7 37 9.9 100530 50
2012-05-04 07:47:36 51°13.704 2°55.77 3.1 27 9.9 100530 49
2012-05-04 07:47:41 51°13.708 2°55.763 2.6 56 9.9 100530 49
2012-05-04 07:47:46 51°13.712 2°55.756 3.6 21 10 100520 49
2012-05-04 07:47:51 51°13.716 2°55.749 3.8 33 10 100520 49
2012-05-04 07:47:56 51°13.721 2°55.742 5.5 28 10.1 100520 49
2012-05-04 07:48:01 51°13.726 2°55.735 5.2 38 10.1 100520 49
2012-05-04 07:48:06 51°13.731 2°55.729 4.1 21 10.2 100530 49
2012-05-04 07:48:11 51°13.736 2°55.723 5 39 10.2 100530 49
2012-05-04 07:48:16 51°13.741 2°55.718 4.6 23 10.2 100520 50
2012-05-04 07:48:21 51°13.745 2°55.715 3.8 39 10.2 100520 50
2012-05-04 07:48:26 51°13.748 2°55.712 3.2 20 10.1 100520 47
2012-05-04 07:48:31 51°13.751 2°55.71 2.3 32 10.1 100520 47
2012-05-04 07:48:36 51°13.753 2°55.708 2.9 27 10.1 100520 48
2012-05-04 07:48:41 51°13.756 2°55.706 3.7 32 10.1 100520 48
2012-05-04 07:48:46 51°13.759 2°55.703 3.4 27 10.1 100520 47
2012-05-04 07:48:51 51°13.763 2°55.7 2.5 34 10.1 100520 47
2012-05-04 07:48:56 51°13.767 2°55.698 4.6 27 10.1 100520 48
2012-05-04 07:49:01 51°13.771 2°55.694 4.2 30 10.1 100520 48
2012-05-04 07:49:06 51°13.776 2°55.691 4.6 26 10 100520 47
2012-05-04 07:49:11 51°13.78 2°55.688 3.8 36 10 100520 47
2012-05-04 07:49:16 51°13.786 2°55.683 3.5 21 10 100520 48
2012-05-04 07:49:21 51°13.791 2°55.679 3 32 10 100520 48
2012-05-04 07:49:26 51°13.796 2°55.674 2.8 22 10 100520 48
2012-05-04 07:49:31 51°13.801 2°55.669 3.6 33 10 100520 48
2012-05-04 07:49:36 51°13.807 2°55.664 4 20 10 100520 45
2012-05-04 07:49:41 51°13.812 2°55.658 4.8 37 10 100520 45
2012-05-04 07:49:46 51°13.818 2°55.653 4.1 25 10.1 100520 49
2012-05-04 07:49:51 51°13.824 2°55.647 5.2 38 10.1 100520 49
2012-05-04 07:49:56 51°13.831 2°55.642 4.2 20 10.1 100520 48
2012-05-04 07:50:01 51°13.838 2°55.637 4.8 31 10.1 100520 48
2012-05-04 07:50:06 51°13.844 2°55.631 5.1 25 10.1 100520 47
2012-05-04 07:50:11 51°13.851 2°55.626 4.7 31 10.1 100520 47
2012-05-04 07:50:16 51°13.858 2°55.621 4.4 21 10.1 100520 48
2012-05-04 07:50:21 51°13.864 2°55.617 2.7 32 10.1 100520 48
2012-05-04 07:50:26 51°13.87 2°55.612 2.7 18 10 100520 46
2012-05-04 07:50:31 51°13.876 2°55.608 2 30 10 100520 46
2012-05-04 07:50:36 51°13.882 2°55.604 3.4 26 10 100520 47
2012-05-04 07:50:41 51°13.888 2°55.601 4.8 39 10 100520 47
2012-05-04 07:50:46 51°13.893 2°55.598 4.9 26 10 100520 48
2012-05-04 07:50:51 51°13.898 2°55.596 4.5 33 10 100520 48
2012-05-04 07:50:56 51°13.903 2°55.594 4.7 25 10.1 100520 49
2012-05-04 07:51:01 51°13.908 2°55.592 3.9 33 10.1 100520 49
2012-05-04 07:51:06 51°13.913 2°55.591 5.4 22 10.1 100520 47
2012-05-04 07:51:11 51°13.917 2°55.59 3.5 43 10.1 100520 47
2012-05-04 07:51:16 51°13.922 2°55.59 3.4 39 10 100520 48
2012-05-04 07:51:21 51°13.926 2°55.59 3.1 42 10 100520 48
2012-05-04 07:51:26 51°13.93 2°55.59 3 42 10 100520 47
2012-05-04 07:51:31 51°13.934 2°55.59 5.6 43 10 100520 47
2012-05-04 07:51:36 51°13.938 2°55.591 5.1 41 10 100520 48
2012-05-04 07:51:41 51°13.942 2°55.592 4.7 38 10 100520 48
2012-05-04 07:51:46 51°13.946 2°55.593 4.7 40 10 100520 48
2012-05-04 07:51:51 51°13.95 2°55.594 4.6 39 10 100520 48
2012-05-04 07:51:56 51°13.953 2°55.596 5.1 37 9.9 100520 48
2012-05-04 07:52:01 51°13.957 2°55.598 5 36 9.9 100520 48
2012-05-04 07:52:06 51°13.961 2°55.6 4.5 36 9.9 100510 48
2012-05-04 07:52:11 51°13.964 2°55.603 4.4 32 9.9 100510 48
2012-05-04 07:52:16 51°13.968 2°55.605 4.4 31 9.9 100510 45
2012-05-04 07:52:21 51°13.971 2°55.608 4 37 9.9 100510 45
2012-05-04 07:52:26 51°13.974 2°55.611 4.1 35 9.8 100510 48
2012-05-04 07:52:31 51°13.977 2°55.613 4.1 26 9.8 100510 48
2012-05-04 07:52:36 51°13.979 2°55.615 3.3 23 9.8 100510 48
2012-05-04 07:52:41 51°13.981 2°55.616 3.5 22 9.8 100510 48
2012-05-04 07:52:46 51°13.981 2°55.617 3.1 19 9.8 100510 48
2012-05-04 07:52:51 51°13.982 2°55.617 2.9 13 9.8 100510 48
2012-05-04 07:52:56 51°13.982 2°55.616 3.1 9 9.8 100510 46
2012-05-04 07:53:01 51°13.982 2°55.616 2.7 7 9.8 100510 46
2012-05-04 07:53:06 51°13.982 2°55.614 2 2 9.8 100510 47
2012-05-04 07:53:11 51°13.981 2°55.613 2.4 5 9.8 100510 47
2012-05-04 07:53:16 51°13.981 2°55.61 2.5 354 9.7 100510 47
2012-05-04 07:53:21 51°13.98 2°55.607 3.6 353 9.7 100510 47
2012-05-04 07:53:26 51°13.98 2°55.604 3.7 350 9.7 100520 48
2012-05-04 07:53:31 51°13.98 2°55.599 3.6 350 9.7 100520 48
2012-05-04 07:53:36 51°13.98 2°55.594 3.7 345 9.7 100510 48
2012-05-04 07:53:41 51°13.981 2°55.588 3.5 345 9.7 100510 48
2012-05-04 07:53:46 51°13.981 2°55.582 3.4 341 9.7 100510 47
2012-05-04 07:53:51 51°13.983 2°55.576 4.3 339 9.7 100510 47
2012-05-04 07:53:56 51°13.985 2°55.569 4.6 339 9.7 100510 48
2012-05-04 07:54:01 51°13.988 2°55.563 4.2 332 9.7 100510 48
2012-05-04 07:54:06 51°13.991 2°55.557 4.6 329 9.7 100520 48
2012-05-04 07:54:11 51°13.994 2°55.551 4.4 327 9.7 100520 48
2012-05-04 07:54:16 51°13.999 2°55.546 4.7 333 9.7 100510 47
2012-05-04 07:54:21 51°14.003 2°55.541 4.6 331 9.7 100510 47
2012-05-04 07:54:26 51°14.008 2°55.535 4.4 327 9.7 100510 48
2012-05-04 07:54:31 51°14.014 2°55.53 5.2 329 9.7 100510 48
2012-05-04 07:54:36 51°14.02 2°55.524 5.5 328 9.6 100510 47
2012-05-04 07:54:41 51°14.027 2°55.518 5.7 325 9.6 100510 47
2012-05-04 07:54:46 51°14.034 2°55.512 5.5 327 9.7 100510 47
2012-05-04 07:54:51 51°14.041 2°55.505 5.8 327 9.7 100510 47
2012-05-04 07:54:56 51°14.049 2°55.498 6.5 326 9.6 100510 47
2012-05-04 07:55:01 51°14.058 2°55.49 6.1 324 9.6 100510 47
2012-05-04 07:55:07 51°14.069 2°55.48 6.1 327 9.6 100510 47
2012-05-04 07:55:11 51°14.076 2°55.473 6.2 327 9.6 100510 47
2012-05-04 07:55:16 51°14.086 2°55.465 7.1 328 9.6 100510 47
2012-05-04 07:55:21 51°14.096 2°55.456 6.8 325 9.6 100510 47
2012-05-04 07:55:26 51°14.106 2°55.447 6.1 328 9.6 100510 47
2012-05-04 07:55:31 51°14.117 2°55.437 7.9 323 9.6 100510 47
2012-05-04 07:55:36 51°14.128 2°55.428 7.1 326 9.6 100510 48
2012-05-04 07:55:41 51°14.138 2°55.418 8.3 327 9.6 100510 48
2012-05-04 07:55:46 51°14.149 2°55.407 7.8 327 9.6 100510 48
2012-05-04 07:55:51 51°14.16 2°55.397 8.1 328 9.6 100510 48
2012-05-04 07:55:56 51°14.172 2°55.386 7.4 328 9.6 100510 47
2012-05-04 07:56:01 51°14.183 2°55.375 7.5 327 9.6 100510 47
2012-05-04 07:56:06 51°14.195 2°55.365 7.4 328 9.6 100510 48
2012-05-04 07:56:11 51°14.206 2°55.354 7.5 326 9.6 100510 48
2012-05-04 07:56:16 51°14.218 2°55.344 7.1 325 9.6 100510 47
2012-05-04 07:56:21 51°14.23 2°55.332 8.3 326 9.6 100510 47
2012-05-04 07:56:26 51°14.242 2°55.32 7.6 326 9.6 100510 47
2012-05-04 07:56:31 51°14.254 2°55.308 7.2 328 9.6 100510 47
2012-05-04 07:56:36 51°14.267 2°55.297 7.6 325 9.6 100500 48
2012-05-04 07:56:41 51°14.279 2°55.284 8.1 324 9.6 100500 48
2012-05-04 07:56:46 51°14.292 2°55.273 8.4 326 9.6 100500 47
2012-05-04 07:56:51 51°14.305 2°55.262 8.3 326 9.6 100500 47
2012-05-04 07:56:56 51°14.318 2°55.25 8.6 326 9.6 100500 47
2012-05-04 07:57:01 51°14.331 2°55.237 8.8 324 9.6 100500 47
2012-05-04 07:57:06 51°14.345 2°55.225 7.8 324 9.5 100510 48
2012-05-04 07:57:11 51°14.358 2°55.214 8 326 9.5 100510 48
2012-05-04 07:57:16 51°14.372 2°55.201 7.6 329 9.5 100510 47
2012-05-04 07:57:21 51°14.385 2°55.187 10.5 328 9.5 100510 47
2012-05-04 07:57:26 51°14.398 2°55.173 8.3 327 9.5 100500 48
2012-05-04 07:57:31 51°14.411 2°55.159 9.1 326 9.5 100500 48
2012-05-04 07:57:36 51°14.425 2°55.145 8.6 326 9.5 100500 47
2012-05-04 07:57:41 51°14.438 2°55.13 9.9 326 9.5 100500 47
2012-05-04 07:57:46 51°14.451 2°55.114 8.2 326 9.5 100510 48
2012-05-04 07:57:51 51°14.465 2°55.1 9.2 326 9.5 100510 48
2012-05-04 07:57:56 51°14.478 2°55.086 9 325 9.5 100500 48
2012-05-04 07:58:01 51°14.493 2°55.073 9.1 325 9.5 100500 48
2012-05-04 07:58:06 51°14.507 2°55.059 9.3 325 9.5 100500 47
2012-05-04 07:58:11 51°14.52 2°55.045 9.1 325 9.5 100500 47
2012-05-04 07:58:16 51°14.534 2°55.03 9.2 327 9.5 100500 48
2012-05-04 07:58:21 51°14.547 2°55.014 7.4 324 9.5 100500 48
2012-05-04 07:58:26 51°14.56 2°54.998 9 324 9.5 100500 48
2012-05-04 07:58:31 51°14.573 2°54.981 10 328 9.5 100500 48
2012-05-04 07:58:36 51°14.584 2°54.962 10.8 328 9.5 100510 48
2012-05-04 07:58:41 51°14.595 2°54.942 8.8 329 9.5 100510 48
2012-05-04 07:58:46 51°14.605 2°54.921 8.2 329 9.5 100510 47
2012-05-04 07:58:51 51°14.615 2°54.899 10.2 329 9.5 100510 47
2012-05-04 07:58:56 51°14.623 2°54.876 10.6 329 9.5 100510 48
2012-05-04 07:59:01 51°14.632 2°54.853 10.4 331 9.5 100510 48
2012-05-04 07:59:06 51°14.638 2°54.829 9.6 330 9.5 100510 48
2012-05-04 07:59:11 51°14.645 2°54.804 9.6 332 9.5 100510 48
2012-05-04 07:59:16 51°14.649 2°54.778 9.5 332 9.5 100510 48
2012-05-04 07:59:21 51°14.653 2°54.752 7.7 334 9.5 100510 48
2012-05-04 07:59:26 51°14.655 2°54.725 7.8 335 9.5 100510 48
2012-05-04 07:59:31 51°14.655 2°54.698 9.9 337 9.5 100510 48
2012-05-04 07:59:36 51°14.655 2°54.672 9.6 338 9.5 100510 47
2012-05-04 07:59:40 51°14.653 2°54.65 8.7 340 9.5 100510 47
2012-05-04 07:59:45 51°14.65 2°54.624 7.5 340 9.5 100510 47
2012-05-04 07:59:50 51°14.645 2°54.598 8 344 9.5 100510 47
2012-05-04 07:59:55 51°14.639 2°54.573 7.2 344 9.5 100510 47
2012-05-04 08:00:00 51°14.632 2°54.548 6.8 344 9.5 100510 47
2012-05-04 08:00:04 51°14.626 2°54.528 8 344 9.5 100510 47
2012-05-04 08:00:10 51°14.615 2°54.499 6.8 283 9.5 100510 47
2012-05-04 08:00:15 51°14.607 2°54.475 7.4 345 9.5 100520 46
2012-05-04 08:00:20 51°14.598 2°54.452 8.1 343 9.5 100520 46
2012-05-04 08:00:24 51°14.59 2°54.434 7.9 342 9.4 100510 47
2012-05-04 08:00:29 51°14.58 2°54.411 7.9 340 9.4 100510 47
2012-05-04 08:00:34 51°14.57 2°54.388 8.5 340 9.5 100520 48
2012-05-04 08:00:39 51°14.56 2°54.365 7.5 342 9.5 100520 48
2012-05-04 08:00:44 51°14.55 2°54.342 7.6 343 9.5 100510 47
2012-05-04 08:00:48 51°14.542 2°54.324 8.4 343 9.5 100510 47
2012-05-04 08:00:53 51°14.531 2°54.302 8.7 344 9.5 100510 47
2012-05-04 08:00:58 51°14.521 2°54.279 7.1 344 9.5 100510 47
2012-05-04 08:01:03 51°14.51 2°54.257 8.6 343 9.5 100520 47
2012-05-04 08:01:08 51°14.499 2°54.235 8.9 345 9.5 100520 47
2012-05-04 08:01:12 51°14.491 2°54.217 8.6 345 9.4 100520 48
2012-05-04 08:01:18 51°14.477 2°54.192 7.6 345 9.4 100520 48
2012-05-04 08:01:23 51°14.466 2°54.169 8.7 344 9.5 100520 47
2012-05-04 08:01:28 51°14.455 2°54.147 7.5 345 9.5 100520 47
2012-05-04 08:01:32 51°14.447 2°54.129 7.7 345 9.4 100520 48
2012-05-04 08:01:37 51°14.436 2°54.107 7.5 346 9.4 100520 48
2012-05-04 08:01:43 51°14.423 2°54.08 7.5 345 9.4 100510 47
2012-05-04 08:01:48 51°14.413 2°54.057 8.3 346 9.4 100510 47
2012-05-04 08:01:52 51°14.404 2°54.039 8.6 346 9.4 100520 47
2012-05-04 08:01:58 51°14.392 2°54.011 8 345 9.4 100520 47
2012-05-04 08:02:03 51°14.382 2°53.988 8.1 346 9.4 100520 47
2012-05-04 08:02:08 51°14.372 2°53.966 7.3 344 9.4 100520 47
2012-05-04 08:02:12 51°14.363 2°53.948 7.6 345 9.4 100510 48
2012-05-04 08:02:18 51°14.351 2°53.921 8.7 343 9.4 100510 48
2012-05-04 08:02:23 51°14.34 2°53.898 9.2 344 9.4 100510 48
2012-05-04 08:02:28 51°14.329 2°53.876 8.7 343 9.4 100510 48
2012-05-04 08:02:33 51°14.319 2°53.853 7.6 345 9.4 100510 48
2012-05-04 08:02:38 51°14.309 2°53.83 7 342 9.4 100510 48
2012-05-04 08:02:43 51°14.298 2°53.808 9 343 9.4 100520 47
2012-05-04 08:02:48 51°14.288 2°53.785 8.7 345 9.4 100520 47
2012-05-04 08:02:52 51°14.28 2°53.767 8 346 9.4 100520 47
2012-05-04 08:02:58 51°14.267 2°53.741 7.4 346 9.4 100520 47
2012-05-04 08:03:03 51°14.255 2°53.72 7.2 347 9.3 100510 47
2012-05-04 08:03:08 51°14.243 2°53.699 8.3 346 9.3 100510 47
2012-05-04 08:03:12 51°14.234 2°53.683 8.2 345 9.4 100520 48
2012-05-04 08:03:18 51°14.22 2°53.657 7 345 9.4 100520 48
2012-05-04 08:03:23 51°14.208 2°53.636 7.6 346 9.3 100510 48
2012-05-04 08:03:28 51°14.196 2°53.616 7.5 345 9.3 100510 48
2012-05-04 08:03:33 51°14.184 2°53.596 6.7 346 9.3 100520 48
2012-05-04 08:03:38 51°14.172 2°53.576 6.9 345 9.3 100520 48
2012-05-04 08:03:43 51°14.16 2°53.557 6.5 344 9.3 100520 48
2012-05-04 08:03:48 51°14.148 2°53.536 6.8 342 9.3 100520 48
2012-05-04 08:03:52 51°14.137 2°53.522 7.9 345 9.3 100520 48
2012-05-04 08:03:58 51°14.124 2°53.497 6.5 342 9.3 100520 48
2012-05-04 08:04:03 51°14.11 2°53.478 7.5 345 9.3 100520 48
2012-05-04 08:04:08 51°14.1 2°53.456 6.7 343 9.3 100520 48
2012-05-04 08:04:12 51°14.089 2°53.442 5.6 343 9.3 100520 47
2012-05-04 08:04:18 51°14.076 2°53.416 7 345 9.3 100520 47
2012-05-04 08:04:23 51°14.064 2°53.396 7.3 342 9.3 100520 48
2012-05-04 08:04:28 51°14.052 2°53.374 7.2 347 9.3 100520 48
2012-05-04 08:04:32 51°14.044 2°53.356 7.5 345 9.3 100510 47
2012-05-04 08:04:38 51°14.03 2°53.331 7.6 348 9.3 100510 47
2012-05-04 08:04:43 51°14.02 2°53.309 5.8 343 9.3 100520 48
2012-05-04 08:04:48 51°14.008 2°53.288 8.4 347 9.3 100520 48
2012-05-04 08:04:53 51°13.999 2°53.265 8 345 9.3 100510 48
2012-05-04 08:04:58 51°13.986 2°53.245 8.5 346 9.3 100510 48
2012-05-04 08:05:03 51°13.977 2°53.222 7.2 344 9.3 100520 47
2012-05-04 08:05:08 51°13.965 2°53.201 8.4 344 9.3 100520 47
2012-05-04 08:05:13 51°13.955 2°53.178 6.9 343 9.3 100520 48
2012-05-04 08:05:18 51°13.944 2°53.157 8 343 9.3 100520 48
2012-05-04 08:05:23 51°13.933 2°53.135 7.2 341 9.3 100510 48
2012-05-04 08:05:28 51°13.922 2°53.112 7.4 341 9.3 100510 48
2012-05-04 08:05:32 51°13.914 2°53.095 8.4 341 9.3 100520 46
2012-05-04 08:05:38 51°13.902 2°53.067 8 340 9.3 100520 46
2012-05-04 08:05:43 51°13.892 2°53.044 8.8 341 9.3 100520 47
2012-05-04 08:05:48 51°13.882 2°53.021 7.6 344 9.3 100520 47
2012-05-04 08:05:52 51°13.874 2°53.003 8.2 344 9.3 100520 48
2012-05-04 08:05:58 51°13.862 2°52.976 7.4 342 9.3 100520 48
2012-05-04 08:06:03 51°13.852 2°52.952 8.2 344 9.3 100520 47
2012-05-04 08:06:08 51°13.843 2°52.929 8.4 343 9.3 100520 47
2012-05-04 08:06:13 51°13.834 2°52.905 8.3 347 9.3 100520 48
2012-05-04 08:06:18 51°13.823 2°52.883 7.2 342 9.3 100520 48
2012-05-04 08:06:23 51°13.814 2°52.859 7.5 346 9.3 100520 47
2012-05-04 08:06:28 51°13.804 2°52.836 7.1 344 9.3 100520 47
2012-05-04 08:06:32 51°13.797 2°52.818 8.6 343 9.3 100520 47
2012-05-04 08:06:38 51°13.785 2°52.79 7.9 343 9.3 100520 47
2012-05-04 08:06:43 51°13.775 2°52.766 8.1 342 9.3 100520 48
2012-05-04 08:06:48 51°13.766 2°52.743 8.6 342 9.3 100520 48
2012-05-04 08:06:52 51°13.758 2°52.724 6.8 342 9.3 100510 47
2012-05-04 08:06:58 51°13.747 2°52.695 8.2 343 9.3 100510 47
2012-05-04 08:07:03 51°13.738 2°52.672 6.3 341 9.3 100520 48
2012-05-04 08:07:08 51°13.728 2°52.648 8.4 343 9.3 100520 48
2012-05-04 08:07:13 51°13.719 2°52.624 8.2 340 9.3 100520 48
2012-05-04 08:07:18 51°13.71 2°52.601 8 343 9.3 100520 48
2012-05-04 08:07:23 51°13.701 2°52.577 8.5 341 9.3 100520 48
2012-05-04 08:07:28 51°13.692 2°52.553 7.9 342 9.3 100520 48
2012-05-04 08:07:32 51°13.684 2°52.534 6.7 344 9.4 100520 48
2012-05-04 08:07:38 51°13.673 2°52.506 6.8 344 9.4 100520 48
2012-05-04 08:07:43 51°13.663 2°52.482 6.8 344 9.3 100520 47
2012-05-04 08:07:48 51°13.653 2°52.459 7.5 342 9.3 100520 47
2012-05-04 08:07:52 51°13.646 2°52.44 8.2 342 9.3 100520 47
2012-05-04 08:07:58 51°13.635 2°52.412 7.7 342 9.3 100520 47
2012-05-04 08:08:03 51°13.625 2°52.389 8.6 342 9.3 100520 47
2012-05-04 08:08:08 51°13.616 2°52.365 8.3 344 9.3 100520 47
2012-05-04 08:08:12 51°13.608 2°52.347 8.1 343 9.4 100520 46
2012-05-04 08:08:18 51°13.596 2°52.318 7.7 344 9.4 100520 46
2012-05-04 08:08:23 51°13.587 2°52.295 6.8 343 9.3 100520 48
2012-05-04 08:08:28 51°13.577 2°52.272 7.3 344 9.3 100520 48
2012-05-04 08:08:32 51°13.569 2°52.253 8.3 345 9.3 100520 48
2012-05-04 08:08:38 51°13.557 2°52.226 7.6 345 9.3 100520 48
2012-05-04 08:08:43 51°13.547 2°52.203 7.1 346 9.3 100520 47
2012-05-04 08:08:48 51°13.536 2°52.181 7 345 9.3 100520 47
2012-05-04 08:08:53 51°13.526 2°52.158 7 347 9.3 100520 48
2012-05-04 08:08:58 51°13.516 2°52.136 6.4 346 9.3 100520 48
2012-05-04 08:09:02 51°13.507 2°52.118 7 345 9.3 100510 48
2012-05-04 08:09:08 51°13.495 2°52.091 6.3 345 9.3 100510 48
2012-05-04 08:09:12 51°13.486 2°52.073 6.2 343 9.3 100510 47
2012-05-04 08:09:18 51°13.474 2°52.046 7 342 9.3 100510 47
2012-05-04 08:09:23 51°13.463 2°52.024 7.3 344 9.3 100510 47
2012-05-04 08:09:28 51°13.452 2°52.002 7.4 344 9.3 100510 47
2012-05-04 08:09:32 51°13.444 2°51.984 7.3 344 9.3 100510 47
2012-05-04 08:09:38 51°13.431 2°51.957 7.1 345 9.3 100510 47
2012-05-04 08:09:43 51°13.421 2°51.934 7 345 9.3 100520 48
2012-05-04 08:09:48 51°13.41 2°51.912 7.8 346 9.3 100520 48
2012-05-04 08:09:52 51°13.402 2°51.893 8.1 345 9.3 100520 48
2012-05-04 08:09:58 51°13.39 2°51.865 7.9 344 9.3 100520 48
2012-05-04 08:10:03 51°13.38 2°51.842 6.9 344 9.3 100510 48
2012-05-04 08:10:08 51°13.371 2°51.818 6.5 344 9.3 100510 48
2012-05-04 08:10:13 51°13.361 2°51.795 6.8 345 9.3 100510 48
2012-05-04 08:10:18 51°13.352 2°51.771 6.6 345 9.3 100510 48
2012-05-04 08:10:23 51°13.342 2°51.749 7.4 347 9.3 100510 48
2012-05-04 08:10:28 51°13.331 2°51.726 6.8 344 9.3 100510 48
2012-05-04 08:10:32 51°13.323 2°51.708 6.9 345 9.3 100510 47
2012-05-04 08:10:38 51°13.311 2°51.68 7.6 342 9.3 100510 47
2012-05-04 08:10:43 51°13.3 2°51.658 8.5 346 9.3 100520 47
2012-05-04 08:10:48 51°13.291 2°51.635 7.4 344 9.3 100520 47
2012-05-04 08:10:52 51°13.282 2°51.618 7.1 342 9.3 100510 47
2012-05-04 08:10:58 51°13.27 2°51.589 7.2 344 9.3 100510 47
2012-05-04 08:11:03 51°13.26 2°51.567 7.7 344 9.3 100520 49
2012-05-04 08:11:08 51°13.249 2°51.545 8.5 344 9.3 100520 49
2012-05-04 08:11:12 51°13.241 2°51.526 7.2 345 9.3 100520 47
2012-05-04 08:11:18 51°13.23 2°51.498 8.5 343 9.3 100520 47
2012-05-04 08:11:23 51°13.22 2°51.475 6.9 344 9.3 100510 47
2012-05-04 08:11:28 51°13.211 2°51.451 8.3 342 9.3 100510 47
2012-05-04 08:11:33 51°13.202 2°51.428 9 343 9.3 100510 48
2012-05-04 08:11:38 51°13.193 2°51.403 7.6 344 9.3 100510 48
2012-05-04 08:11:43 51°13.185 2°51.379 7.6 343 9.3 100520 48
2012-05-04 08:11:48 51°13.175 2°51.355 7.9 345 9.3 100520 48
2012-05-04 08:11:52 51°13.168 2°51.336 7.6 345 9.3 100520 48
2012-05-04 08:11:58 51°13.157 2°51.308 7.3 346 9.3 100520 48
2012-05-04 08:12:03 51°13.147 2°51.284 8.3 344 9.3 100510 48
2012-05-04 08:12:08 51°13.137 2°51.261 9 347 9.3 100510 48
2012-05-04 08:12:12 51°13.13 2°51.243 9.3 344 9.3 100520 48
2012-05-04 08:12:18 51°13.118 2°51.215 8.7 347 9.3 100520 48
2012-05-04 08:12:23 51°13.108 2°51.191 8.5 345 9.3 100520 48
2012-05-04 08:12:28 51°13.099 2°51.168 7.6 346 9.3 100520 48
2012-05-04 08:12:32 51°13.092 2°51.148 9.2 346 9.3 100510 48
2012-05-04 08:12:38 51°13.081 2°51.12 8.4 347 9.3 100510 48
2012-05-04 08:12:43 51°13.073 2°51.095 9 347 9.3 100520 47
2012-05-04 08:12:48 51°13.064 2°51.072 8.9 347 9.3 100520 47
2012-05-04 08:12:52 51°13.057 2°51.052 7.6 346 9.3 100520 48
2012-05-04 08:12:58 51°13.046 2°51.023 7.7 346 9.3 100520 48
2012-05-04 08:13:03 51°13.037 2°50.999 7.5 346 9.2 100510 47
2012-05-04 08:13:08 51°13.029 2°50.975 8.2 346 9.2 100510 47
2012-05-04 08:13:13 51°13.019 2°50.951 7.2 348 9.2 100510 48
2012-05-04 08:13:18 51°13.01 2°50.927 7.3 346 9.2 100510 48
2012-05-04 08:13:23 51°13 2°50.904 7 346 9.2 100510 48
2012-05-04 08:13:28 51°12.99 2°50.88 7.7 347 9.2 100510 48
2012-05-04 08:13:32 51°12.982 2°50.862 8.1 347 9.3 100510 46
2012-05-04 08:13:38 51°12.97 2°50.834 7.2 345 9.3 100510 46
2012-05-04 08:13:43 51°12.96 2°50.811 8.2 346 9.3 100510 48
2012-05-04 08:13:48 51°12.951 2°50.787 7.3 343 9.3 100510 48
2012-05-04 08:13:52 51°12.943 2°50.768 6.9 345 9.3 100510 48
2012-05-04 08:13:58 51°12.933 2°50.739 7.4 344 9.3 100510 48
2012-05-04 08:14:03 51°12.924 2°50.714 8.6 345 9.3 100510 48
2012-05-04 08:14:08 51°12.916 2°50.689 6.7 343 9.3 100510 48
2012-05-04 08:14:12 51°12.909 2°50.67 8.3 344 9.2 100520 47
2012-05-04 08:14:18 51°12.9 2°50.639 8.2 343 9.2 100520 47
2012-05-04 08:14:23 51°12.891 2°50.615 6.8 345 9.3 100510 47
2012-05-04 08:14:28 51°12.883 2°50.589 7 344 9.3 100510 47
2012-05-04 08:14:32 51°12.875 2°50.57 8.7 346 9.2 100520 48
2012-05-04 08:14:38 51°12.866 2°50.54 7 342 9.2 100520 48
2012-05-04 08:14:43 51°12.857 2°50.515 8.6 344 9.2 100510 48
2012-05-04 08:14:48 51°12.849 2°50.49 9.5 341 9.2 100510 48
2012-05-04 08:14:52 51°12.842 2°50.471 8.1 342 9.2 100510 49
2012-05-04 08:14:57 51°12.834 2°50.445 9.3 343 9.2 100510 49
2012-05-04 08:15:03 51°12.823 2°50.416 9.2 343 9.3 100510 47
2012-05-04 08:15:08 51°12.816 2°50.39 9 344 9.3 100510 47
2012-05-04 08:15:12 51°12.81 2°50.37 8.1 343 9.3 100510 48
2012-05-04 08:15:18 51°12.8 2°50.34 7.4 344 9.3 100510 48
2012-05-04 08:15:23 51°12.792 2°50.315 9 344 9.3 100510 48
2012-05-04 08:15:28 51°12.783 2°50.29 9.1 344 9.3 100510 48
2012-05-04 08:15:32 51°12.777 2°50.27 9.1 344 9.3 100510 47
2012-05-04 08:15:38 51°12.767 2°50.241 8.4 344 9.3 100510 47
2012-05-04 08:15:43 51°12.758 2°50.216 7.4 343 9.3 100500 48
2012-05-04 08:15:48 51°12.75 2°50.191 8.2 343 9.3 100500 48
2012-05-04 08:15:52 51°12.743 2°50.171 7.2 343 9.3 100510 48
2012-05-04 08:15:58 51°12.732 2°50.142 8.2 345 9.3 100510 48
2012-05-04 08:16:03 51°12.723 2°50.118 8 344 9.3 100510 48
2012-05-04 08:16:08 51°12.713 2°50.095 7.3 346 9.3 100510 48
2012-05-04 08:16:12 51°12.707 2°50.075 7.4 345 9.3 100510 46
2012-05-04 08:16:18 51°12.695 2°50.047 7 345 9.3 100510 46
2012-05-04 08:16:23 51°12.685 2°50.024 8.3 346 9.3 100510 47
2012-05-04 08:16:28 51°12.675 2°50.001 8.5 344 9.3 100510 47
2012-05-04 08:16:32 51°12.668 2°49.982 8.5 344 9.3 100510 47
2012-05-04 08:16:38 51°12.656 2°49.953 8.3 343 9.3 100510 47
2012-05-04 08:16:43 51°12.647 2°49.929 8.4 344 9.3 100510 47
2012-05-04 08:16:48 51°12.638 2°49.905 7.4 343 9.3 100510 47
2012-05-04 08:16:52 51°12.63 2°49.886 8.1 344 9.3 100510 47
2012-05-04 08:16:58 51°12.62 2°49.857 6.8 346 9.3 100510 47
2012-05-04 08:17:03 51°12.611 2°49.833 6.3 344 9.3 100500 48
2012-05-04 08:17:08 51°12.602 2°49.809 7.5 345 9.3 100500 48
2012-05-04 08:17:12 51°12.595 2°49.789 7.1 344 9.3 100510 47
2012-05-04 08:17:18 51°12.584 2°49.76 7.5 347 9.3 100510 47
2012-05-04 08:17:23 51°12.576 2°49.735 7.8 344 9.3 100510 48
2012-05-04 08:17:28 51°12.566 2°49.712 8.4 346 9.3 100510 48
2012-05-04 08:17:32 51°12.559 2°49.692 7.4 346 9.3 100510 47
2012-05-04 08:17:38 51°12.548 2°49.664 7.6 348 9.3 100510 47
2012-05-04 08:17:43 51°12.538 2°49.64 6.8 347 9.3 100510 48
2012-05-04 08:17:48 51°12.528 2°49.618 7.4 345 9.3 100510 48
2012-05-04 08:17:52 51°12.52 2°49.599 6.7 347 9.3 100510 47
2012-05-04 08:17:58 51°12.508 2°49.571 8 346 9.3 100510 47
2012-05-04 08:18:03 51°12.499 2°49.548 7.9 348 9.3 100510 48
2012-05-04 08:18:08 51°12.488 2°49.525 7.2 348 9.3 100510 48
2012-05-04 08:18:12 51°12.481 2°49.506 7.9 346 9.3 100510 48
2012-05-04 08:18:18 51°12.47 2°49.478 7.3 345 9.3 100510 48
2012-05-04 08:18:23 51°12.461 2°49.454 7.6 344 9.3 100510 48
2012-05-04 08:18:28 51°12.452 2°49.43 8.1 344 9.3 100510 48
2012-05-04 08:18:32 51°12.445 2°49.411 8.3 344 9.2 100500 47
2012-05-04 08:18:38 51°12.434 2°49.382 8.3 345 9.2 100500 47
2012-05-04 08:18:43 51°12.425 2°49.358 7.9 347 9.2 100510 47
2012-05-04 08:18:48 51°12.415 2°49.335 8.3 346 9.2 100510 47
2012-05-04 08:18:52 51°12.408 2°49.315 8.5 348 9.2 100500 47
2012-05-04 08:18:58 51°12.398 2°49.286 8.4 342 9.2 100500 47
2012-05-04 08:19:03 51°12.39 2°49.262 7.1 343 9.3 100510 47
2012-05-04 08:19:08 51°12.382 2°49.237 7.3 341 9.3 100510 47
2012-05-04 08:19:12 51°12.375 2°49.218 8.4 344 9.2 100500 47
2012-05-04 08:19:18 51°12.365 2°49.188 7.9 343 9.2 100500 47
2012-05-04 08:19:23 51°12.357 2°49.163 8.4 344 9.3 100510 48
2012-05-04 08:19:28 51°12.349 2°49.139 7.5 344 9.3 100510 48
2012-05-04 08:19:32 51°12.343 2°49.119 8.5 342 9.3 100510 48
2012-05-04 08:19:38 51°12.333 2°49.09 9.1 344 9.3 100510 48
2012-05-04 08:19:43 51°12.325 2°49.066 7.7 343 9.3 100510 48
2012-05-04 08:19:48 51°12.316 2°49.043 7.3 344 9.3 100510 48
2012-05-04 08:19:52 51°12.309 2°49.024 7 344 9.3 100510 48
2012-05-04 08:19:58 51°12.298 2°48.996 7.6 344 9.3 100510 48
2012-05-04 08:20:03 51°12.289 2°48.972 8.4 344 9.3 100500 48
2012-05-04 08:20:08 51°12.28 2°48.949 8.1 345 9.3 100500 48
2012-05-04 08:20:12 51°12.273 2°48.93 8.2 346 9.3 100500 47
2012-05-04 08:20:18 51°12.262 2°48.902 8.4 346 9.3 100500 47
2012-05-04 08:20:23 51°12.254 2°48.878 7.2 347 9.3 100510 47
2012-05-04 08:20:28 51°12.245 2°48.854 7 344 9.3 100510 47
2012-05-04 08:20:33 51°12.237 2°48.83 8.4 344 9.2 100500 48
2012-05-04 08:20:38 51°12.228 2°48.806 7.1 342 9.2 100500 48
2012-05-04 08:20:43 51°12.22 2°48.782 8.5 345 9.3 100500 48
2012-05-04 08:20:48 51°12.212 2°48.758 6.9 344 9.3 100500 48
2012-05-04 08:20:52 51°12.205 2°48.738 7.2 344 9.2 100510 47
2012-05-04 08:20:58 51°12.196 2°48.709 7.4 345 9.2 100510 47
2012-05-04 08:21:03 51°12.187 2°48.686 6.9 344 9.3 100500 48
2012-05-04 08:21:08 51°12.178 2°48.662 8.1 344 9.3 100500 48
2012-05-04 08:21:12 51°12.171 2°48.643 6.9 346 9.3 100500 48
2012-05-04 08:21:18 51°12.16 2°48.615 7.1 344 9.3 100500 48
2012-05-04 08:21:23 51°12.151 2°48.592 8.3 344 9.3 100500 48
2012-05-04 08:21:28 51°12.141 2°48.569 8.5 344 9.3 100500 48
2012-05-04 08:21:32 51°12.134 2°48.55 8.2 346 9.3 100500 46
2012-05-04 08:21:38 51°12.122 2°48.523 7.5 344 9.3 100500 46
2012-05-04 08:21:43 51°12.113 2°48.499 8.4 346 9.3 100510 48
2012-05-04 08:21:48 51°12.105 2°48.475 6.8 346 9.3 100510 48
2012-05-04 08:21:53 51°12.095 2°48.452 6.9 344 9.3 100500 48
2012-05-04 08:21:57 51°12.088 2°48.433 7.8 346 9.3 100500 48
2012-05-04 08:22:03 51°12.076 2°48.406 7.6 346 9.3 100510 48
2012-05-04 08:22:08 51°12.067 2°48.383 7.3 346 9.3 100510 48
2012-05-04 08:22:12 51°12.059 2°48.365 7.8 344 9.3 100500 48
2012-05-04 08:22:18 51°12.047 2°48.338 7.1 347 9.3 100500 48
2012-05-04 08:22:23 51°12.037 2°48.316 7.1 347 9.3 100500 47
2012-05-04 08:22:28 51°12.027 2°48.293 8.5 346 9.3 100500 47
2012-05-04 08:22:33 51°12.018 2°48.27 7.7 345 9.2 100500 48
2012-05-04 08:22:38 51°12.008 2°48.248 7.2 344 9.2 100500 48
2012-05-04 08:22:43 51°11.998 2°48.225 7 344 9.2 100500 47
2012-05-04 08:22:48 51°11.989 2°48.201 7.6 340 9.2 100500 47
2012-05-04 08:22:53 51°11.98 2°48.179 7.7 343 9.2 100500 48
2012-05-04 08:22:58 51°11.971 2°48.155 7.8 343 9.2 100500 48
2012-05-04 08:23:03 51°11.963 2°48.131 7.6 344 9.3 100500 47
2012-05-04 08:23:08 51°11.955 2°48.107 8.5 341 9.3 100500 47
2012-05-04 08:23:12 51°11.948 2°48.088 7.8 342 9.3 100500 48
2012-05-04 08:23:18 51°11.939 2°48.058 7.5 343 9.3 100500 48
2012-05-04 08:23:23 51°11.931 2°48.035 7.6 344 9.3 100500 47
2012-05-04 08:23:28 51°11.923 2°48.01 8.9 345 9.3 100500 47
2012-05-04 08:23:32 51°11.917 2°47.99 7.3 343 9.2 100500 48
2012-05-04 08:23:38 51°11.907 2°47.961 8.8 343 9.2 100500 48
2012-05-04 08:23:43 51°11.9 2°47.937 7.6 344 9.3 100500 47
2012-05-04 08:23:48 51°11.893 2°47.912 8.2 342 9.3 100500 47
2012-05-04 08:23:52 51°11.887 2°47.892 8 342 9.3 100500 48
2012-05-04 08:23:58 51°11.879 2°47.861 7.5 343 9.3 100500 48
2012-05-04 08:24:03 51°11.872 2°47.837 7.4 344 9.3 100500 48
2012-05-04 08:24:08 51°11.865 2°47.811 8.9 343 9.3 100500 48
2012-05-04 08:24:12 51°11.86 2°47.791 7.5 345 9.2 100500 46
2012-05-04 08:24:18 51°11.852 2°47.761 7.5 341 9.2 100500 46
2012-05-04 08:24:23 51°11.846 2°47.735 8.6 341 9.3 100500 48
2012-05-04 08:24:28 51°11.839 2°47.71 7.6 342 9.3 100500 48
2012-05-04 08:24:32 51°11.833 2°47.69 7.3 341 9.3 100500 48
2012-05-04 08:24:38 51°11.826 2°47.66 8.5 343 9.3 100500 48
2012-05-04 08:24:43 51°11.819 2°47.634 7.7 342 9.3 100500 49
2012-05-04 08:24:48 51°11.812 2°47.609 7.6 346 9.3 100500 49
2012-05-04 08:24:52 51°11.807 2°47.589 7.3 345 9.3 100500 47
2012-05-04 08:24:58 51°11.797 2°47.56 8.4 344 9.3 100500 47
2012-05-04 08:25:03 51°11.791 2°47.535 7.4 343 9.3 100510 49
2012-05-04 08:25:08 51°11.783 2°47.511 6.9 343 9.3 100510 49
2012-05-04 08:25:13 51°11.775 2°47.486 7.8 344 9.3 100500 48
2012-05-04 08:25:18 51°11.768 2°47.461 7.5 340 9.3 100500 48
2012-05-04 08:25:23 51°11.761 2°47.436 8.4 340 9.3 100500 47
2012-05-04 08:25:28 51°11.754 2°47.412 7.9 342 9.3 100500 47
2012-05-04 08:25:32 51°11.748 2°47.392 7 340 9.3 100500 49
2012-05-04 08:25:38 51°11.74 2°47.362 8.3 342 9.3 100500 49
2012-05-04 08:25:43 51°11.733 2°47.337 7.3 343 9.3 100500 47
2012-05-04 08:25:48 51°11.725 2°47.313 7.1 344 9.3 100500 47
2012-05-04 08:25:52 51°11.72 2°47.292 7.3 345 9.3 100500 49
2012-05-04 08:25:58 51°11.711 2°47.263 7.3 343 9.3 100500 49
2012-05-04 08:26:03 51°11.704 2°47.238 7.9 343 9.3 100500 48
2012-05-04 08:26:08 51°11.697 2°47.214 7.5 343 9.3 100500 48
2012-05-04 08:26:12 51°11.691 2°47.194 7.6 346 9.3 100500 47
2012-05-04 08:26:17 51°11.684 2°47.17 7.8 341 9.3 100500 47
2012-05-04 08:26:23 51°11.674 2°47.141 7.1 344 9.3 100500 48
2012-05-04 08:26:28 51°11.666 2°47.117 8.2 341 9.3 100500 48
2012-05-04 08:26:32 51°11.659 2°47.099 7.2 343 9.3 100500 49
2012-05-04 08:26:38 51°11.65 2°47.07 7.2 341 9.3 100500 49
2012-05-04 08:26:43 51°11.641 2°47.046 7.9 341 9.3 100500 48
2012-05-04 08:26:48 51°11.634 2°47.022 7.2 340 9.3 100500 48
2012-05-04 08:26:53 51°11.625 2°46.998 6.8 341 9.3 100500 47
2012-05-04 08:26:58 51°11.619 2°46.974 8 345 9.3 100500 47
2012-05-04 08:27:02 51°11.612 2°46.955 8.7 343 9.3 100500 48
2012-05-04 08:27:08 51°11.602 2°46.927 8 344 9.3 100500 48
2012-05-04 08:27:12 51°11.596 2°46.908 8.1 342 9.3 100500 47
2012-05-04 08:27:18 51°11.586 2°46.88 7.5 345 9.3 100500 47
2012-05-04 08:27:23 51°11.578 2°46.857 7.3 345 9.3 100500 48
2012-05-04 08:27:28 51°11.569 2°46.834 8.5 343 9.3 100500 48
2012-05-04 08:27:32 51°11.562 2°46.815 8.5 345 9.3 100490 48
2012-05-04 08:27:38 51°11.552 2°46.788 6.7 345 9.3 100490 48
2012-05-04 08:27:43 51°11.543 2°46.766 6.3 341 9.3 100500 49
2012-05-04 08:27:48 51°11.535 2°46.742 7.6 342 9.3 100500 49
2012-05-04 08:27:52 51°11.528 2°46.724 7.3 342 9.3 100510 48
2012-05-04 08:27:58 51°11.518 2°46.697 8.2 345 9.3 100510 48
2012-05-04 08:28:03 51°11.51 2°46.673 6.9 345 9.3 100500 48
2012-05-04 08:28:08 51°11.503 2°46.65 7.1 345 9.3 100500 48
2012-05-04 08:28:12 51°11.495 2°46.632 7.9 345 9.3 100500 49
2012-05-04 08:28:18 51°11.486 2°46.604 8.4 346 9.3 100500 49
2012-05-04 08:28:23 51°11.477 2°46.581 7.2 346 9.3 100500 47
2012-05-04 08:28:28 51°11.469 2°46.557 7.9 347 9.3 100500 47
2012-05-04 08:28:33 51°11.461 2°46.535 7.3 349 9.3 100500 49
2012-05-04 08:28:38 51°11.452 2°46.512 8.2 347 9.3 100500 49
2012-05-04 08:28:43 51°11.444 2°46.489 7.6 346 9.3 100500 48
2012-05-04 08:28:48 51°11.436 2°46.466 6.8 347 9.3 100500 48
2012-05-04 08:28:52 51°11.429 2°46.448 6.8 347 9.3 100500 48
2012-05-04 08:28:58 51°11.419 2°46.42 6.9 348 9.3 100500 48
2012-05-04 08:29:03 51°11.411 2°46.396 7.8 348 9.3 100500 47
2012-05-04 08:29:08 51°11.403 2°46.374 7.1 346 9.3 100500 47
2012-05-04 08:29:12 51°11.396 2°46.355 7.3 347 9.3 100510 48
2012-05-04 08:29:18 51°11.387 2°46.327 6.4 346 9.3 100510 48
2012-05-04 08:29:23 51°11.379 2°46.304 6.8 348 9.3 100500 48
2012-05-04 08:29:28 51°11.371 2°46.281 7.5 343 9.3 100500 48
2012-05-04 08:29:33 51°11.362 2°46.258 7.7 345 9.3 100500 46
2012-05-04 08:29:38 51°11.354 2°46.235 7.3 346 9.3 100500 46
2012-05-04 08:29:42 51°11.348 2°46.217 7.4 345 9.2 100500 48
2012-05-04 08:29:48 51°11.338 2°46.189 6.8 344 9.2 100500 48
2012-05-04 08:29:53 51°11.33 2°46.166 7.6 346 9.2 100500 47
2012-05-04 08:29:58 51°11.323 2°46.142 8 347 9.2 100500 47
2012-05-04 08:30:03 51°11.316 2°46.118 8.4 349 9.2 100500 49
2012-05-04 08:30:08 51°11.308 2°46.095 6.7 348 9.2 100500 49
2012-05-04 08:30:12 51°11.302 2°46.076 6.7 347 9.2 100500 49
2012-05-04 08:30:18 51°11.293 2°46.047 6.8 348 9.2 100500 49
2012-05-04 08:30:23 51°11.286 2°46.023 6.6 347 9.2 100500 48
2012-05-04 08:30:28 51°11.279 2°45.999 7 344 9.2 100500 48
2012-05-04 08:30:32 51°11.274 2°45.98 7.8 345 9.2 100500 49
2012-05-04 08:30:38 51°11.265 2°45.951 8.4 346 9.2 100500 49
2012-05-04 08:30:43 51°11.259 2°45.927 8.5 347 9.2 100500 49
2012-05-04 08:30:48 51°11.252 2°45.902 8.2 348 9.2 100500 49
2012-05-04 08:30:53 51°11.246 2°45.878 8.6 347 9.2 100500 47
2012-05-04 08:30:58 51°11.239 2°45.854 8.1 346 9.2 100500 47
2012-05-04 08:31:03 51°11.232 2°45.829 7.1 347 9.2 100510 49
2012-05-04 08:31:08 51°11.225 2°45.805 8.5 348 9.2 100510 49
2012-05-04 08:31:12 51°11.22 2°45.786 8.1 348 9.2 100500 48
2012-05-04 08:31:18 51°11.211 2°45.757 7.8 350 9.2 100500 48
2012-05-04 08:31:23 51°11.203 2°45.734 6.6 348 9.2 100500 49
2012-05-04 08:31:28 51°11.196 2°45.71 7.2 347 9.2 100500 49
2012-05-04 08:31:32 51°11.19 2°45.692 7.3 348 9.2 100500 48
2012-05-04 08:31:38 51°11.181 2°45.663 7.3 345 9.2 100500 48
2012-05-04 08:31:43 51°11.174 2°45.64 7.3 348 9.2 100500 47
2012-05-04 08:31:48 51°11.166 2°45.617 7.2 346 9.2 100500 47
2012-05-04 08:31:53 51°11.158 2°45.593 8.3 348 9.2 100500 47
2012-05-04 08:31:58 51°11.151 2°45.57 8.2 346 9.2 100500 47
2012-05-04 08:32:03 51°11.142 2°45.547 7.7 347 9.2 100500 48
2012-05-04 08:32:08 51°11.135 2°45.523 6.6 347 9.2 100500 48
2012-05-04 08:32:13 51°11.127 2°45.5 8 347 9.2 100500 47
2012-05-04 08:32:18 51°11.121 2°45.476 8.2 347 9.2 100500 47
2012-05-04 08:32:23 51°11.113 2°45.452 7 347 9.1 100490 48
2012-05-04 08:32:28 51°11.106 2°45.429 6.5 348 9.1 100490 48
2012-05-04 08:32:32 51°11.1 2°45.41 7.1 347 9.1 100500 48
2012-05-04 08:32:38 51°11.092 2°45.381 7 350 9.1 100500 48
2012-05-04 08:32:43 51°11.085 2°45.357 7.1 350 9.1 100490 48
2012-05-04 08:32:48 51°11.077 2°45.334 7.5 347 9.1 100490 48
2012-05-04 08:32:52 51°11.071 2°45.315 6.9 346 9.1 100490 48
2012-05-04 08:32:58 51°11.062 2°45.288 6.6 347 9.1 100490 48
2012-05-04 08:33:03 51°11.054 2°45.264 6.8 345 9.1 100500 48
2012-05-04 08:33:08 51°11.048 2°45.24 6.2 346 9.1 100500 48
2012-05-04 08:33:12 51°11.041 2°45.222 6.1 346 9.1 100500 48
2012-05-04 08:33:18 51°11.033 2°45.193 6.8 346 9.1 100500 48
2012-05-04 08:33:23 51°11.027 2°45.168 6.4 348 9.1 100500 48
2012-05-04 08:33:28 51°11.019 2°45.145 6 348 9.1 100500 48
2012-05-04 08:33:33 51°11.013 2°45.121 7.3 348 9.1 100490 48
2012-05-04 08:33:38 51°11.006 2°45.097 7.7 346 9.1 100490 48
2012-05-04 08:33:43 51°11 2°45.073 8.1 349 9.1 100500 48
2012-05-04 08:33:48 51°10.993 2°45.049 6.8 347 9.1 100500 48
2012-05-04 08:33:52 51°10.987 2°45.03 7.4 349 9.1 100490 48
2012-05-04 08:33:58 51°10.979 2°45.002 7 346 9.1 100490 48
2012-05-04 08:34:03 51°10.971 2°44.978 6.9 348 9.1 100500 48
2012-05-04 08:34:08 51°10.964 2°44.955 6.8 280 9.1 100500 48
2012-05-04 08:34:12 51°10.958 2°44.937 6.7 348 9.1 100490 48
2012-05-04 08:34:18 51°10.948 2°44.909 7.1 348 9.1 100490 48
2012-05-04 08:34:23 51°10.941 2°44.886 7.4 348 9.1 100490 48
2012-05-04 08:34:28 51°10.933 2°44.862 7.6 346 9.1 100490 48
2012-05-04 08:34:32 51°10.928 2°44.843 7.4 348 9.1 100490 49
2012-05-04 08:34:38 51°10.92 2°44.814 7 347 9.1 100490 49
2012-05-04 08:34:43 51°10.913 2°44.79 6.9 348 9.1 100500 49
2012-05-04 08:34:48 51°10.906 2°44.767 7.9 348 9.1 100500 49
2012-05-04 08:34:52 51°10.901 2°44.747 6.7 346 9.1 100500 47
2012-05-04 08:34:58 51°10.894 2°44.718 6.6 347 9.1 100500 47
2012-05-04 08:35:03 51°10.887 2°44.695 7.2 350 9.1 100490 48
2012-05-04 08:35:08 51°10.881 2°44.671 6.8 348 9.1 100490 48
2012-05-04 08:35:12 51°10.876 2°44.651 7 347 9.1 100490 49
2012-05-04 08:35:17 51°10.87 2°44.626 6.4 346 9.1 100490 49
2012-05-04 08:35:23 51°10.863 2°44.597 7.7 347 9.1 100500 48
2012-05-04 08:35:28 51°10.858 2°44.573 7.5 345 9.1 100500 48
2012-05-04 08:35:32 51°10.853 2°44.553 7.8 345 9.1 100490 49
2012-05-04 08:35:38 51°10.846 2°44.524 7.2 349 9.1 100490 49
2012-05-04 08:35:43 51°10.841 2°44.5 7.4 346 9.1 100490 49
2012-05-04 08:35:48 51°10.835 2°44.476 7.7 344 9.1 100490 49
2012-05-04 08:35:52 51°10.83 2°44.456 7.2 344 9.1 100490 49
2012-05-04 08:35:58 51°10.824 2°44.427 6.5 344 9.1 100490 49
2012-05-04 08:36:03 51°10.817 2°44.403 6.8 345 9.1 100500 48
2012-05-04 08:36:08 51°10.812 2°44.379 7.3 344 9.1 100500 48
2012-05-04 08:36:13 51°10.805 2°44.355 7.3 346 9.1 100490 49
2012-05-04 08:36:18 51°10.8 2°44.331 7.5 346 9.1 100490 49
2012-05-04 08:36:23 51°10.793 2°44.307 7.2 346 9.1 100500 49
2012-05-04 08:36:28 51°10.788 2°44.282 7.9 346 9.1 100500 49
2012-05-04 08:36:33 51°10.781 2°44.259 7.3 345 9.1 100500 48
2012-05-04 08:36:38 51°10.775 2°44.235 7 347 9.1 100500 48
2012-05-04 08:36:43 51°10.768 2°44.211 6.8 349 9.1 100500 48
2012-05-04 08:36:48 51°10.762 2°44.187 6.6 349 9.1 100500 48
2012-05-04 08:36:53 51°10.755 2°44.164 7.2 350 9.1 100490 49
2012-05-04 08:36:58 51°10.749 2°44.14 6.7 349 9.1 100490 49
2012-05-04 08:37:03 51°10.741 2°44.117 6.3 350 9.1 100500 48
2012-05-04 08:37:08 51°10.734 2°44.094 6.5 349 9.1 100500 48
2012-05-04 08:37:12 51°10.728 2°44.075 6.5 346 9.1 100490 49
2012-05-04 08:37:18 51°10.719 2°44.048 6.1 348 9.1 100490 49
2012-05-04 08:37:23 51°10.711 2°44.026 6.1 344 9.1 100490 48
2012-05-04 08:37:28 51°10.704 2°44.003 6.4 349 9.1 100490 48
2012-05-04 08:37:32 51°10.698 2°43.984 6.8 346 9.1 100500 47
2012-05-04 08:37:37 51°10.69 2°43.962 6.6 354 9.1 100500 47
2012-05-04 08:37:43 51°10.681 2°43.935 6.6 349 9.1 100490 49
2012-05-04 08:37:48 51°10.673 2°43.913 7 354 9.1 100490 49
2012-05-04 08:37:52 51°10.667 2°43.894 6.6 352 9.1 100500 49
2012-05-04 08:37:58 51°10.657 2°43.868 7.3 354 9.1 100500 49
2012-05-04 08:38:03 51°10.65 2°43.845 6.2 353 9.2 100500 48
2012-05-04 08:38:08 51°10.641 2°43.823 6.6 353 9.2 100500 48
2012-05-04 08:38:12 51°10.635 2°43.805 7.1 353 9.2 100490 49
2012-05-04 08:38:18 51°10.626 2°43.778 7.2 352 9.2 100490 49
2012-05-04 08:38:23 51°10.618 2°43.755 6.9 352 9.2 100490 48
2012-05-04 08:38:28 51°10.611 2°43.732 7 349 9.2 100490 48
2012-05-04 08:38:33 51°10.603 2°43.71 7.2 348 9.2 100490 49
2012-05-04 08:38:38 51°10.597 2°43.686 6.3 349 9.2 100490 49
2012-05-04 08:38:43 51°10.589 2°43.664 6.2 351 9.2 100490 49
2012-05-04 08:38:48 51°10.582 2°43.641 7.3 351 9.2 100490 49
2012-05-04 08:38:52 51°10.577 2°43.623 7.1 352 9.2 100490 49
2012-05-04 08:38:58 51°10.568 2°43.596 6.5 350 9.2 100490 49
2012-05-04 08:39:03 51°10.562 2°43.572 7.4 350 9.2 100490 49
2012-05-04 08:39:08 51°10.556 2°43.548 7 351 9.2 100490 49
2012-05-04 08:39:12 51°10.552 2°43.529 7.5 352 9.2 100490 48
2012-05-04 08:39:18 51°10.545 2°43.5 6.4 352 9.2 100490 48
2012-05-04 08:39:23 51°10.54 2°43.476 7.9 353 9.2 100490 49
2012-05-04 08:39:28 51°10.534 2°43.452 7.3 352 9.2 100490 49
2012-05-04 08:39:32 51°10.531 2°43.433 7.6 352 9.2 100490 48
2012-05-04 08:39:38 51°10.525 2°43.404 7.1 350 9.2 100490 48
2012-05-04 08:39:43 51°10.52 2°43.38 7.6 349 9.2 100500 48
2012-05-04 08:39:48 51°10.515 2°43.356 7.1 350 9.2 100500 48
2012-05-04 08:39:52 51°10.512 2°43.337 7.6 348 9.2 100490 49
2012-05-04 08:39:58 51°10.507 2°43.308 7.8 347 9.2 100490 49
2012-05-04 08:40:03 51°10.502 2°43.284 7.4 348 9.2 100490 50
2012-05-04 08:40:08 51°10.497 2°43.26 6.6 348 9.2 100490 50
2012-05-04 08:40:12 51°10.494 2°43.241 6.7 351 9.2 100490 48
2012-05-04 08:40:18 51°10.488 2°43.212 7.3 350 9.2 100490 48
2012-05-04 08:40:23 51°10.483 2°43.188 6.8 349 9.1 100490 49
2012-05-04 08:40:28 51°10.479 2°43.164 6.8 351 9.1 100490 49
2012-05-04 08:40:33 51°10.474 2°43.14 6.6 351 9.1 100490 49
2012-05-04 08:40:38 51°10.469 2°43.116 6.9 351 9.1 100490 49
2012-05-04 08:40:43 51°10.464 2°43.093 6.7 351 9.1 100490 49
2012-05-04 08:40:48 51°10.459 2°43.07 7.6 350 9.1 100490 49
2012-05-04 08:40:52 51°10.455 2°43.051 7.3 349 9.1 100490 48
2012-05-04 08:40:58 51°10.448 2°43.023 7.2 349 9.1 100490 48
2012-05-04 08:41:03 51°10.443 2°42.999 7.4 350 9.1 100490 48
2012-05-04 08:41:08 51°10.437 2°42.976 7.1 351 9.1 100490 48
2012-05-04 08:41:12 51°10.433 2°42.957 7.3 351 9.1 100490 49
2012-05-04 08:41:18 51°10.426 2°42.929 7.2 350 9.1 100490 49
2012-05-04 08:41:23 51°10.42 2°42.906 7.3 350 9.1 100490 50
2012-05-04 08:41:28 51°10.415 2°42.882 7.1 350 9.1 100490 50
2012-05-04 08:41:32 51°10.41 2°42.863 6.8 350 9.1 100490 48
2012-05-04 08:41:38 51°10.404 2°42.835 7 350 9.1 100490 48
2012-05-04 08:41:43 51°10.398 2°42.811 6.3 349 9.1 100490 48
2012-05-04 08:41:48 51°10.393 2°42.787 6.3 350 9.1 100490 48
2012-05-04 08:41:52 51°10.389 2°42.768 6.8 350 9.1 100490 49
2012-05-04 08:41:58 51°10.383 2°42.74 7 349 9.1 100490 49
2012-05-04 08:42:03 51°10.379 2°42.716 6.5 347 9 100490 50
2012-05-04 08:42:08 51°10.374 2°42.692 6.7 349 9 100490 50
2012-05-04 08:42:12 51°10.371 2°42.672 6.7 346 9.1 100490 49
2012-05-04 08:42:18 51°10.365 2°42.643 8 351 9.1 100490 49
2012-05-04 08:42:23 51°10.362 2°42.619 7.7 350 9 100490 49
2012-05-04 08:42:28 51°10.357 2°42.595 7.6 348 9 100490 49
2012-05-04 08:42:33 51°10.354 2°42.571 6.7 348 9 100500 50
2012-05-04 08:42:38 51°10.35 2°42.547 6.8 347 9 100500 50
2012-05-04 08:42:43 51°10.345 2°42.523 7.3 348 9.1 100490 49
2012-05-04 08:42:48 51°10.339 2°42.5 7.4 349 9.1 100490 49
2012-05-04 08:42:53 51°10.332 2°42.477 8.2 350 9 100490 48
2012-05-04 08:42:58 51°10.326 2°42.455 6.5 348 9 100490 48
2012-05-04 08:43:03 51°10.319 2°42.433 7.6 350 9.1 100490 50
2012-05-04 08:43:08 51°10.311 2°42.411 6.9 350 9.1 100490 50
2012-05-04 08:43:12 51°10.305 2°42.394 6.6 350 9 100490 49
2012-05-04 08:43:18 51°10.295 2°42.369 6.3 347 9 100490 49
2012-05-04 08:43:23 51°10.286 2°42.348 7.1 349 9 100490 49
2012-05-04 08:43:28 51°10.279 2°42.326 6.4 347 9 100490 49
2012-05-04 08:43:32 51°10.271 2°42.31 4.5 346 9 100500 48
2012-05-04 08:43:38 51°10.262 2°42.284 4.4 350 9 100500 48
2012-05-04 08:43:43 51°10.253 2°42.263 4.6 351 9 100490 49
2012-05-04 08:43:48 51°10.244 2°42.243 4.6 353 9 100490 49
2012-05-04 08:43:52 51°10.237 2°42.226 4.5 353 9 100500 50
2012-05-04 08:43:58 51°10.226 2°42.202 4.7 350 9 100500 50
2012-05-04 08:44:03 51°10.217 2°42.181 4.9 347 9 100490 48
2012-05-04 08:44:08 51°10.208 2°42.161 3.6 349 9 100490 48
2012-05-04 08:44:12 51°10.201 2°42.144 3.6 351 9 100490 50
2012-05-04 08:44:18 51°10.19 2°42.121 5.1 354 9 100490 50
2012-05-04 08:44:23 51°10.181 2°42.1 3.1 354 9 100490 48
2012-05-04 08:44:28 51°10.171 2°42.081 2.8 349 9 100490 48
2012-05-04 08:44:32 51°10.163 2°42.065 3.4 350 9 100500 49
2012-05-04 08:44:38 51°10.151 2°42.042 6.3 350 9 100500 49
2012-05-04 08:44:43 51°10.141 2°42.023 6 350 9 100500 49
2012-05-04 08:44:48 51°10.131 2°42.003 6.1 350 9 100500 49
2012-05-04 08:44:52 51°10.123 2°41.988 6 349 9 100490 50
2012-05-04 08:44:58 51°10.112 2°41.964 6.5 348 9 100490 50
2012-05-04 08:45:03 51°10.102 2°41.946 5.2 347 9 100490 50
2012-05-04 08:45:08 51°10.093 2°41.926 5.7 350 9 100490 50
2012-05-04 08:45:13 51°10.083 2°41.907 5.4 346 9 100490 50
2012-05-04 08:45:18 51°10.073 2°41.886 5.9 351 9 100490 50
2012-05-04 08:45:23 51°10.065 2°41.866 5.3 350 9 100490 48
2012-05-04 08:45:28 51°10.055 2°41.847 5.9 352 9 100490 48
2012-05-04 08:45:33 51°10.046 2°41.827 5.7 351 8.9 100490 49
2012-05-04 08:45:38 51°10.037 2°41.807 5.8 351 8.9 100490 49
2012-05-04 08:45:43 51°10.029 2°41.785 6.1 348 8.9 100500 49
2012-05-04 08:45:48 51°10.02 2°41.765 6.8 351 8.9 100500 49
2012-05-04 08:45:52 51°10.014 2°41.748 5.9 280 8.9 100490 49
2012-05-04 08:45:58 51°10.005 2°41.722 6.3 350 8.9 100490 49
2012-05-04 08:46:03 51°9.997 2°41.7 6.7 349 8.9 100500 48
2012-05-04 08:46:08 51°9.989 2°41.679 6.4 348 8.9 100500 48
2012-05-04 08:46:12 51°9.983 2°41.662 6.6 349 8.9 100500 49
2012-05-04 08:46:18 51°9.974 2°41.636 6.7 349 8.9 100500 49
2012-05-04 08:46:23 51°9.966 2°41.615 6.2 349 9 100500 48
2012-05-04 08:46:28 51°9.959 2°41.593 6 347 9 100500 48
2012-05-04 08:46:33 51°9.951 2°41.572 6.9 349 9 100490 50
2012-05-04 08:46:38 51°9.943 2°41.551 6.2 347 9 100490 50
2012-05-04 08:46:43 51°9.934 2°41.531 6.7 350 9 100490 49
2012-05-04 08:46:48 51°9.925 2°41.51 6.2 349 9 100490 49
2012-05-04 08:46:52 51°9.918 2°41.494 6.1 348 9 100490 50
2012-05-04 08:46:58 51°9.907 2°41.47 6.4 352 9 100490 50
2012-05-04 08:47:03 51°9.899 2°41.45 7.1 352 9 100500 49
2012-05-04 08:47:08 51°9.89 2°41.429 7.2 351 9 100500 49
2012-05-04 08:47:12 51°9.885 2°41.413 6.8 353 9 100500 49
2012-05-04 08:47:18 51°9.876 2°41.392 5.8 350 9 100500 49
2012-05-04 08:47:23 51°9.871 2°41.375 6 351 9 100500 49
2012-05-04 08:47:28 51°9.866 2°41.36 5.7 353 9 100500 49
2012-05-04 08:47:32 51°9.863 2°41.348 6 352 9 100490 49
2012-05-04 08:47:38 51°9.86 2°41.332 5.3 354 9 100490 49
2012-05-04 08:47:43 51°9.858 2°41.319 5.8 355 9 100500 50
2012-05-04 08:47:48 51°9.856 2°41.308 5 355 9 100500 50
2012-05-04 08:47:52 51°9.854 2°41.299 4.8 356 9 100500 49
2012-05-04 08:47:58 51°9.853 2°41.286 4.4 354 9 100500 49
2012-05-04 08:48:03 51°9.852 2°41.277 4.4 354 9 100500 49
2012-05-04 08:48:08 51°9.851 2°41.268 4.5 356 9 100500 49
2012-05-04 08:48:12 51°9.851 2°41.261 5 358 9 100500 47
2012-05-04 08:48:18 51°9.85 2°41.251 3.8 358 9 100500 47
2012-05-04 08:48:23 51°9.849 2°41.243 4.2 -999 9 100500 48
2012-05-04 08:48:28 51°9.849 2°41.236 3.9 358 9 100500 48
2012-05-04 08:48:33 51°9.849 2°41.229 4.2 359 9 100500 49
2012-05-04 08:48:37 51°9.849 2°41.224 4.1 359 9 100500 49
2012-05-04 08:48:43 51°9.849 2°41.216 3.7 359 8.9 100500 48
2012-05-04 08:48:48 51°9.849 2°41.21 4.6 358 8.9 100500 48
2012-05-04 08:48:52 51°9.848 2°41.205 4.4 359 8.9 100500 50
2012-05-04 08:48:58 51°9.848 2°41.197 4.2 360 8.9 100500 50
2012-05-04 08:49:03 51°9.848 2°41.192 4.5 2 8.9 100500 49
2012-05-04 08:49:08 51°9.847 2°41.186 4.2 3 8.9 100500 49
2012-05-04 08:49:12 51°9.847 2°41.182 3.7 3 8.9 100500 49
2012-05-04 08:49:18 51°9.846 2°41.175 4.2 4 8.9 100500 49
2012-05-04 08:49:23 51°9.845 2°41.17 2.8 4 8.9 100500 50
2012-05-04 08:49:28 51°9.844 2°41.165 3.8 3 8.9 100500 50
2012-05-04 08:49:32 51°9.844 2°41.161 3.8 4 8.9 100500 50
2012-05-04 08:49:38 51°9.843 2°41.155 2.9 3 8.9 100500 50
2012-05-04 08:49:43 51°9.842 2°41.151 2.9 5 8.9 100500 50
2012-05-04 08:49:48 51°9.841 2°41.146 3.4 4 8.9 100500 50
2012-05-04 08:49:52 51°9.84 2°41.142 3.3 6 9 100500 49
2012-05-04 08:49:58 51°9.839 2°41.138 4 6 9 100500 49
2012-05-04 08:50:03 51°9.838 2°41.134 3.1 5 9 100500 50
2012-05-04 08:50:08 51°9.837 2°41.13 3.9 8 9 100500 50
2012-05-04 08:50:12 51°9.836 2°41.127 3.6 8 9 100500 50
2012-05-04 08:50:18 51°9.835 2°41.123 3.9 7 9 100500 50
2012-05-04 08:50:23 51°9.832 2°41.121 3.6 7 9 100500 49
2012-05-04 08:50:28 51°9.831 2°41.118 3.6 8 9 100500 49
2012-05-04 08:50:32 51°9.83 2°41.115 4.4 9 9 100490 48
2012-05-04 08:50:38 51°9.829 2°41.111 3.8 9 9 100490 48
2012-05-04 08:50:43 51°9.828 2°41.108 4.3 10 9 100500 48
2012-05-04 08:50:48 51°9.827 2°41.106 4.7 9 9 100500 48
2012-05-04 08:50:53 51°9.826 2°41.103 4.8 9 9 100490 47
2012-05-04 08:50:58 51°9.825 2°41.1 3.4 10 9 100490 47
2012-05-04 08:51:03 51°9.824 2°41.097 3.9 9 8.9 100500 49
2012-05-04 08:51:08 51°9.823 2°41.095 3.2 14 8.9 100500 49
2012-05-04 08:51:12 51°9.822 2°41.093 3.3 10 9 100500 48
2012-05-04 08:51:18 51°9.822 2°41.09 3 7 9 100500 48
2012-05-04 08:51:23 51°9.821 2°41.088 3.2 8 8.9 100500 50
2012-05-04 08:51:28 51°9.82 2°41.085 3.2 7 8.9 100500 50
2012-05-04 08:51:32 51°9.819 2°41.084 3.4 9 8.9 100500 48
2012-05-04 08:51:38 51°9.819 2°41.081 3.1 7 8.9 100500 48
2012-05-04 08:51:43 51°9.818 2°41.079 3.8 9 8.9 100500 48
2012-05-04 08:51:48 51°9.817 2°41.077 3.5 8 8.9 100500 48
2012-05-04 08:51:52 51°9.816 2°41.076 3 8 9 100500 49
2012-05-04 08:51:58 51°9.816 2°41.073 3.6 10 9 100500 49
2012-05-04 08:52:03 51°9.815 2°41.072 4.6 12 9 100500 48
2012-05-04 08:52:08 51°9.815 2°41.07 4.4 8 9 100500 48
2012-05-04 08:52:13 51°9.814 2°41.068 3.2 8 8.9 100490 50
2012-05-04 08:52:18 51°9.813 2°41.066 2.8 5 8.9 100490 50
2012-05-04 08:52:23 51°9.814 2°41.064 4.4 8 9 100500 49
2012-05-04 08:52:28 51°9.814 2°41.062 4 8 9 100500 49
2012-05-04 08:52:33 51°9.813 2°41.06 4.4 9 9 100490 50
2012-05-04 08:52:38 51°9.813 2°41.059 4.3 8 9 100490 50
2012-05-04 08:52:43 51°9.813 2°41.057 4.4 9 9 100500 49
2012-05-04 08:52:48 51°9.812 2°41.055 4.1 8 9 100500 49
2012-05-04 08:52:52 51°9.812 2°41.052 4.3 8 9 100490 49
2012-05-04 08:52:58 51°9.811 2°41.049 3.9 6 9 100490 49
2012-05-04 08:53:03 51°9.81 2°41.045 3.6 6 9 100490 50
2012-05-04 08:53:08 51°9.809 2°41.042 3 3 9 100490 50
2012-05-04 08:53:12 51°9.808 2°41.038 3.1 3 9 100490 48
2012-05-04 08:53:18 51°9.807 2°41.032 3.5 1 9 100490 48
2012-05-04 08:53:23 51°9.806 2°41.027 4.6 358 9 100490 49
2012-05-04 08:53:28 51°9.805 2°41.021 4.4 1 9 100490 49
2012-05-04 08:53:32 51°9.805 2°41.016 4.9 356 9 100500 49
2012-05-04 08:53:38 51°9.804 2°41.008 4.8 357 9 100500 49
2012-05-04 08:53:43 51°9.802 2°41.001 4.7 356 9 100490 48
2012-05-04 08:53:48 51°9.801 2°40.993 4.7 356 9 100490 48
2012-05-04 08:53:53 51°9.8 2°40.986 4.6 355 9 100490 50
2012-05-04 08:53:58 51°9.8 2°40.978 4.6 354 9 100490 50
2012-05-04 08:54:03 51°9.799 2°40.97 4.9 353 9 100490 48
2012-05-04 08:54:08 51°9.798 2°40.961 4.6 353 9 100490 48
2012-05-04 08:54:13 51°9.798 2°40.953 4.8 355 9 100490 50
2012-05-04 08:54:18 51°9.797 2°40.944 4.6 357 9 100490 50
2012-05-04 08:54:23 51°9.797 2°40.935 4.9 356 8.9 100490 48
2012-05-04 08:54:28 51°9.796 2°40.927 4.7 356 8.9 100490 48
2012-05-04 08:54:33 51°9.796 2°40.918 4.9 356 8.9 100490 48
2012-05-04 08:54:38 51°9.796 2°40.909 4.8 358 8.9 100490 48
2012-05-04 08:54:43 51°9.796 2°40.899 4.5 355 8.9 100490 50
2012-05-04 08:54:48 51°9.796 2°40.89 4.6 354 8.9 100490 50
2012-05-04 08:54:52 51°9.796 2°40.883 5 352 8.9 100490 49
2012-05-04 08:54:58 51°9.796 2°40.872 5 353 8.9 100490 49
2012-05-04 08:55:03 51°9.796 2°40.863 4.7 350 8.9 100490 50
2012-05-04 08:55:08 51°9.796 2°40.854 5.3 351 8.9 100490 50
2012-05-04 08:55:12 51°9.796 2°40.847 5.6 351 8.9 100490 48
2012-05-04 08:55:18 51°9.797 2°40.836 5.1 348 8.9 100490 48
2012-05-04 08:55:23 51°9.797 2°40.827 5.7 347 8.9 100490 50
2012-05-04 08:55:28 51°9.798 2°40.819 4.7 349 8.9 100490 50
2012-05-04 08:55:32 51°9.798 2°40.812 5 350 9 100490 48
2012-05-04 08:55:38 51°9.798 2°40.802 5.6 350 9 100490 48
2012-05-04 08:55:43 51°9.799 2°40.794 5.3 349 8.9 100490 48
2012-05-04 08:55:48 51°9.8 2°40.786 5.1 346 8.9 100490 48
2012-05-04 08:55:52 51°9.8 2°40.78 5.6 348 8.9 100490 48
2012-05-04 08:55:58 51°9.801 2°40.77 5.1 346 8.9 100490 48
2012-05-04 08:56:03 51°9.802 2°40.762 4.9 347 8.9 100500 48
2012-05-04 08:56:08 51°9.803 2°40.754 5.4 347 8.9 100500 48
2012-05-04 08:56:12 51°9.804 2°40.748 5.3 283 8.9 100490 48
2012-05-04 08:56:18 51°9.804 2°40.738 5 348 8.9 100490 48
2012-05-04 08:56:23 51°9.805 2°40.731 5.2 348 8.9 100500 48
2012-05-04 08:56:28 51°9.806 2°40.723 5.1 346 8.9 100500 48
2012-05-04 08:56:32 51°9.807 2°40.717 4.7 353 8.9 100490 49
2012-05-04 08:56:38 51°9.808 2°40.708 5.2 347 8.9 100490 49
2012-05-04 08:56:43 51°9.81 2°40.701 5.2 351 8.9 100500 48
2012-05-04 08:56:48 51°9.81 2°40.693 4.6 350 8.9 100500 48
2012-05-04 08:56:53 51°9.812 2°40.686 5.4 350 8.9 100490 49
2012-05-04 08:56:58 51°9.812 2°40.678 4.7 348 8.9 100490 49
2012-05-04 08:57:03 51°9.813 2°40.671 4.5 346 9 100500 48
2012-05-04 08:57:08 51°9.814 2°40.664 4.6 349 9 100500 48
2012-05-04 08:57:12 51°9.814 2°40.658 4.8 350 9 100490 50
2012-05-04 08:57:18 51°9.815 2°40.649 5.4 348 9 100490 50
2012-05-04 08:57:23 51°9.815 2°40.641 5.8 349 8.9 100490 49
2012-05-04 08:57:28 51°9.815 2°40.634 5.8 353 8.9 100490 49
2012-05-04 08:57:32 51°9.815 2°40.629 4.7 354 9 100490 48
2012-05-04 08:57:38 51°9.814 2°40.62 5 357 9 100490 48
2012-05-04 08:57:43 51°9.813 2°40.613 5 -999 9 100500 49
2012-05-04 08:57:48 51°9.813 2°40.606 4.6 360 9 100500 49
2012-05-04 08:57:52 51°9.812 2°40.6 4.8 360 9 100490 48
2012-05-04 08:57:58 51°9.81 2°40.592 4.2 3 9 100490 48
2012-05-04 08:58:03 51°9.809 2°40.586 3.6 2 9 100490 49
2012-05-04 08:58:08 51°9.807 2°40.579 3.6 2 9 100490 49
2012-05-04 08:58:13 51°9.806 2°40.572 4 5 9 100490 48
2012-05-04 08:58:18 51°9.803 2°40.566 3.6 3 9 100490 48
2012-05-04 08:58:23 51°9.801 2°40.56 4.2 359 9 100490 50
2012-05-04 08:58:28 51°9.8 2°40.553 4 1 9 100490 50
2012-05-04 08:58:32 51°9.798 2°40.548 3.7 2 9 100500 49
2012-05-04 08:58:38 51°9.796 2°40.54 3.8 2 9 100500 49
2012-05-04 08:58:43 51°9.794 2°40.534 2.9 1 9 100490 50
2012-05-04 08:58:48 51°9.791 2°40.527 4.2 3 9 100490 50
2012-05-04 08:58:53 51°9.79 2°40.521 4.3 2 9 100500 47
2012-05-04 08:58:58 51°9.787 2°40.514 4 1 9 100500 47
2012-05-04 08:59:03 51°9.785 2°40.508 3.8 2 9 100500 48
2012-05-04 08:59:08 51°9.783 2°40.501 4.1 2 9 100500 48
2012-05-04 08:59:13 51°9.781 2°40.494 3.9 1 9 100500 48
2012-05-04 08:59:18 51°9.779 2°40.487 3.9 359 9 100500 48
2012-05-04 08:59:23 51°9.777 2°40.481 4.2 359 9 100500 49
2012-05-04 08:59:28 51°9.775 2°40.474 4.3 356 9 100500 49
2012-05-04 08:59:32 51°9.773 2°40.468 3.8 354 9 100500 48
2012-05-04 08:59:38 51°9.771 2°40.46 4 354 9 100500 48
2012-05-04 08:59:43 51°9.769 2°40.453 3.6 353 9 100490 49
2012-05-04 08:59:48 51°9.767 2°40.446 4.2 352 9 100490 49
2012-05-04 08:59:52 51°9.765 2°40.44 4 353 9 100500 48
2012-05-04 08:59:58 51°9.763 2°40.431 4.4 356 9 100500 48
2012-05-04 09:00:03 51°9.761 2°40.424 4.5 353 9 100500 50
2012-05-04 09:00:08 51°9.76 2°40.417 3.9 353 9 100500 50
2012-05-04 09:00:13 51°9.757 2°40.41 4 354 8.9 100500 49
2012-05-04 09:00:18 51°9.756 2°40.403 3.8 353 8.9 100500 49
2012-05-04 09:00:23 51°9.754 2°40.396 4.3 353 9 100490 49
2012-05-04 09:00:28 51°9.752 2°40.389 4.3 355 9 100490 49
2012-05-04 09:00:32 51°9.751 2°40.383 3.9 354 8.9 100500 49
2012-05-04 09:00:38 51°9.749 2°40.374 4.3 356 8.9 100500 49
2012-05-04 09:00:43 51°9.747 2°40.367 3.7 352 8.9 100500 50
2012-05-04 09:00:48 51°9.745 2°40.36 4.1 356 8.9 100500 50
2012-05-04 09:00:52 51°9.744 2°40.354 3.8 356 8.9 100500 48
2012-05-04 09:00:58 51°9.742 2°40.345 3.7 358 8.9 100500 48
2012-05-04 09:01:03 51°9.741 2°40.338 3.6 360 8.9 100500 49
2012-05-04 09:01:08 51°9.739 2°40.331 3.9 356 8.9 100500 49
2012-05-04 09:01:12 51°9.737 2°40.325 3.4 358 8.9 100500 49
2012-05-04 09:01:18 51°9.735 2°40.317 3.3 360 8.9 100500 49
2012-05-04 09:01:23 51°9.733 2°40.31 3.7 358 8.9 100500 48
2012-05-04 09:01:28 51°9.731 2°40.303 3.4 358 8.9 100500 48
2012-05-04 09:01:32 51°9.729 2°40.297 3.6 358 8.9 100500 47
2012-05-04 09:01:38 51°9.727 2°40.289 3.3 357 8.9 100500 47
2012-05-04 09:01:43 51°9.724 2°40.282 3.1 1 8.9 100500 50
2012-05-04 09:01:48 51°9.722 2°40.275 3.6 358 8.9 100500 50
2012-05-04 09:01:52 51°9.72 2°40.269 3.4 359 8.9 100500 48
2012-05-04 09:01:58 51°9.717 2°40.261 3.4 359 8.9 100500 48
2012-05-04 09:02:03 51°9.715 2°40.254 3.1 -999 8.9 100500 48
2012-05-04 09:02:08 51°9.713 2°40.247 3.8 358 8.9 100500 48
2012-05-04 09:02:12 51°9.711 2°40.242 3.4 358 8.9 100500 49
2012-05-04 09:02:18 51°9.708 2°40.234 3.7 358 8.9 100500 49
2012-05-04 09:02:23 51°9.705 2°40.227 3.6 358 8.9 100500 48
2012-05-04 09:02:28 51°9.703 2°40.22 3.5 358 8.9 100500 48
2012-05-04 09:02:33 51°9.7 2°40.214 3.3 360 9 100500 48
2012-05-04 09:02:38 51°9.698 2°40.207 3.1 357 9 100500 48
2012-05-04 09:02:42 51°9.696 2°40.202 3 4 9 100500 48
2012-05-04 09:02:48 51°9.692 2°40.194 3 359 9 100500 48
2012-05-04 09:02:52 51°9.69 2°40.189 3.5 359 9 100500 48
2012-05-04 09:02:58 51°9.687 2°40.182 4.2 1 9 100500 48
2012-05-04 09:03:03 51°9.684 2°40.175 4.3 356 9 100510 49
2012-05-04 09:03:08 51°9.681 2°40.169 3.9 -999 9 100510 49
2012-05-04 09:03:12 51°9.678 2°40.164 3.8 -999 9 100500 50
2012-05-04 09:03:18 51°9.675 2°40.156 3 358 9 100500 50
2012-05-04 09:03:23 51°9.672 2°40.15 3.2 360 9 100500 50
2012-05-04 09:03:28 51°9.669 2°40.144 3.4 1 9 100500 50
2012-05-04 09:03:32 51°9.666 2°40.139 3.7 2 9 100500 48
2012-05-04 09:03:38 51°9.663 2°40.131 1.9 3 9 100500 48
2012-05-04 09:03:43 51°9.66 2°40.125 3.4 3 9 100500 48
2012-05-04 09:03:48 51°9.657 2°40.119 3.8 4 9 100500 48
2012-05-04 09:03:52 51°9.655 2°40.114 3.8 2 9 100510 48
2012-05-04 09:03:58 51°9.651 2°40.107 3.5 3 9 100510 48
2012-05-04 09:04:03 51°9.648 2°40.1 3.5 3 9 100500 50
2012-05-04 09:04:08 51°9.645 2°40.094 4.1 2 9 100500 50
2012-05-04 09:04:12 51°9.643 2°40.089 4 2 9 100500 49
2012-05-04 09:04:18 51°9.639 2°40.082 3.8 3 9 100500 49
2012-05-04 09:04:23 51°9.637 2°40.075 4.3 2 9 100500 49
2012-05-04 09:04:28 51°9.634 2°40.069 3.6 3 9 100500 49
2012-05-04 09:04:32 51°9.631 2°40.064 3.4 5 9 100500 50
2012-05-04 09:04:38 51°9.628 2°40.056 3 6 9 100500 50
2012-05-04 09:04:43 51°9.625 2°40.05 3.3 5 9 100500 49
2012-05-04 09:04:48 51°9.622 2°40.043 3.2 7 9 100500 49
2012-05-04 09:04:53 51°9.62 2°40.037 3.7 7 9 100500 50
2012-05-04 09:04:58 51°9.617 2°40.031 2.7 5 9 100500 50
2012-05-04 09:05:02 51°9.615 2°40.025 3 5 9 100510 49
2012-05-04 09:05:08 51°9.611 2°40.018 2.5 7 9 100510 49
2012-05-04 09:05:12 51°9.609 2°40.012 3.2 5 9 100510 49
2012-05-04 09:05:18 51°9.606 2°40.005 2.9 3 9 100510 49
2012-05-04 09:05:23 51°9.603 2°39.998 2.8 3 9 100500 48
2012-05-04 09:05:28 51°9.601 2°39.992 3.5 2 9 100500 48
2012-05-04 09:05:33 51°9.598 2°39.985 3.2 3 9 100510 48
2012-05-04 09:05:38 51°9.596 2°39.978 3.6 2 9 100510 48
2012-05-04 09:05:43 51°9.593 2°39.972 3.8 4 9 100510 50
2012-05-04 09:05:48 51°9.591 2°39.965 3.4 4 9 100510 50
2012-05-04 09:05:53 51°9.588 2°39.958 2.9 3 9 100510 49
2012-05-04 09:05:58 51°9.586 2°39.952 3.1 4 9 100510 49
2012-05-04 09:06:03 51°9.583 2°39.945 2.9 4 9 100500 48
2012-05-04 09:06:08 51°9.581 2°39.938 2.8 6 9 100500 48
2012-05-04 09:06:12 51°9.579 2°39.933 3 6 8.9 100500 48
2012-05-04 09:06:18 51°9.576 2°39.925 3 6 8.9 100500 48
2012-05-04 09:06:23 51°9.574 2°39.918 2.6 6 8.9 100510 49
2012-05-04 09:06:28 51°9.572 2°39.911 2.9 4 8.9 100510 49
2012-05-04 09:06:32 51°9.57 2°39.906 2.6 4 8.9 100510 48
2012-05-04 09:06:38 51°9.568 2°39.897 2.8 3 8.9 100510 48
2012-05-04 09:06:43 51°9.566 2°39.891 3 6 8.9 100510 48
2012-05-04 09:06:48 51°9.563 2°39.884 3.7 1 8.9 100510 48
2012-05-04 09:06:52 51°9.562 2°39.879 3.7 1 8.9 100500 47
2012-05-04 09:06:58 51°9.559 2°39.87 3.9 1 8.9 100500 47
2012-05-04 09:07:03 51°9.557 2°39.864 3.6 1 8.9 100510 49
2012-05-04 09:07:08 51°9.555 2°39.857 3.9 357 8.9 100510 49
2012-05-04 09:07:12 51°9.553 2°39.852 3.8 357 8.9 100500 50
2012-05-04 09:07:18 51°9.55 2°39.843 3.5 358 8.9 100500 50
2012-05-04 09:07:23 51°9.548 2°39.837 3.7 358 8.9 100510 50
2012-05-04 09:07:28 51°9.546 2°39.83 3.8 360 8.9 100510 50
2012-05-04 09:07:32 51°9.544 2°39.825 4.4 1 8.9 100510 48
2012-05-04 09:07:38 51°9.541 2°39.816 4.3 358 8.9 100510 48
2012-05-04 09:07:43 51°9.539 2°39.81 4.1 358 8.9 100510 48
2012-05-04 09:07:48 51°9.536 2°39.803 4.1 -999 8.9 100510 48
2012-05-04 09:07:52 51°9.534 2°39.798 3.9 1 8.9 100510 48
2012-05-04 09:07:58 51°9.531 2°39.79 3.3 1 8.9 100510 48
2012-05-04 09:08:03 51°9.529 2°39.784 3.7 360 8.9 100510 48
2012-05-04 09:08:08 51°9.526 2°39.777 3.9 1 8.9 100510 48